Location: Ajisawe
(8.4333°N, 4.3833°E)
Time: 23:53:47
(UTC+00:00)

S-56A Canister/Altair - Pass Details

Date: 25 April 2021
Orbit: 631 x 2501 km, 38.9° (Epoch: 15 May)

Event Time Altitude Azimuth Distance (km) Brightness Sun altitude
Exits shadow 03:38:16 - 343° (NNW) 2,288 10.0 -27.1°
Reaches altitude 10° 03:39:10 10° 350° (N) 2,018 9.8 -26.9°
Maximum altitude 03:42:19 19° 36° (NE) 1,514 9.6 -26.2°
Drops below altitude 10° 03:45:30 10° 82° (E) 2,055 10.7 -25.4°
Sets 03:48:36 0° 100° (E) 3,097 11.6 -24.7°
